# Land Stadt Wetter Temperatur Luftdruck Luftfeuchtigkeit Sichtweite Windgeschwindigkeit Windrichtung Ortszeit
1 kr Seoul Mist 10 1026 93 4800 18 92 02.08.2018 14:21
2 bg Warna Clear 13 1018 93 10000 5 30 02.08.2018 14:21
3 jp Nagasaki Clouds 17 1020 100 0 15 57 02.08.2018 14:21
4 mg Antananarivo Clouds 17 1024 82 10000 21 120 02.08.2018 14:21
5 de Trier Mist 13 1012 93 4500 17 200 02.08.2018 14:21
6 de München Clouds 13 1015 87 10000 4 180 02.08.2018 14:21
7 de Hamburg Clouds 13 1011 100 10000 4 0 02.08.2018 14:21
8 au Alice Springs Clear 13 1018 32 10000 17 51 02.08.2018 14:21
9 fj Suva -273 0 0 0 0 0 02.08.2018 14:21
10 de Berlin Clouds 16 1013 72 10000 9 180 02.08.2018 14:21
11 bg Sofia Clear 14 1019 51 10000 4 0 02.08.2018 14:21
12 fi Rovaniemi Clouds -1 1015 92 10000 11 120 02.08.2018 14:21
13 gb Glasgow Rain 10 997 87 10000 11 80 02.08.2018 14:21
14 cn Shanghai Clear 18 1021 82 10000 7 340 02.08.2018 14:21
15 vn Hanoi Clouds 25 1017 83 7000 15 50 02.08.2018 14:21
16 au Perth Clear 12 1019 87 10000 15 160 02.08.2018 14:21
17 pg Port Moresby Fog 21 1011 100 10000 4 0 02.08.2018 14:21
18 it Mailand Clear 15 1018 77 10000 8 200 02.08.2018 14:21
19 de Emden Clouds 13 1009 82 10000 8 140 02.08.2018 14:21
20 de Hiddensee Clouds 14 1015 86 0 2 180 02.08.2018 14:21
21 de Flensburg Clouds 11 1009 93 10000 15 210 02.08.2018 14:21
22 gb Manchester Rain 11 1000 81 10000 8 140 02.08.2018 14:21
23 ph Manila Clouds 27 1011 83 10000 4 0 02.08.2018 14:21
24 fr Bordeaux -273 0 0 0 0 0 02.08.2018 14:21
25 de Köln Rain 14 1010 93 10000 13 140 02.08.2018 14:21
26 us Las Vegas Clear 25 1007 17 16093 27 232 02.08.2018 14:21
27 de Kassel Drizzle 14 1012 87 10000 17 180 02.08.2018 14:21
28 ua Kiew Mist 12 1019 93 4700 4 250 02.08.2018 14:21
29 fi Helsinki Rain 5 1010 93 10000 17 50 02.08.2018 14:21
30 mx Mexiko Stadt Rain 18 1025 77 9656 5 70 02.08.2018 14:21
31 ie Dublin Clouds 8 994 87 10000 15 180 02.08.2018 14:21
32 es Las Palmas de Gran Canaria Clouds 22 1020 53 10000 28 20 02.08.2018 14:21
33 sa Riad Clear 27 1019 36 10000 7 120 02.08.2018 14:21
34 ae Dubai -273 0 0 0 0 0 02.08.2018 14:21
35 af Kabul Clouds 15 1024 50 10000 8 110 02.08.2018 14:21
36 us Tucson Clear 30 1010 21 16093 17 130 02.08.2018 14:21
37 mx Veracruz Clouds 28 1012 78 11265 5 360 02.08.2018 14:21
38 de Braunschweig Clear 15 1011 82 10000 8 130 02.08.2018 14:21
39 es Tarifa Clear 22 1018 60 10000 17 230 02.08.2018 14:21
40 do Santo Domingo Clouds 32 1014 56 10000 11 150 02.08.2018 14:21
41 br Manaus Rain 31 1012 66 10000 5 170 02.08.2018 14:21
42 th Bangkok Clouds 30 1012 78 10000 5 40 02.08.2018 14:21
43 in Nagpur Haze 23 1015 83 2500 6 51 02.08.2018 14:21
44 us Denver Clear 22 1012 13 16093 7 153 02.08.2018 14:21
45 de Oberstdorf Clear 13 1015 81 10000 4 0 02.08.2018 14:21
46 de Hannover Drizzle 15 1011 87 10000 2 280 02.08.2018 14:21
47 de Nürnberg Clear 13 1014 76 10000 4 100 02.08.2018 14:21
48 de Helgoland Clouds 13 1010 87 10000 5 150 02.08.2018 14:22
49 de Torfhaus Clear 15 1011 82 10000 9 110 02.08.2018 14:22
50 es Barcelona Clouds 21 1014 77 10000 18 230 02.08.2018 14:22
51 pt Lissabon Clouds 20 1018 94 10000 24 210 02.08.2018 14:22
52 za Kapstadt Clouds 18 1013 82 10000 33 190 02.08.2018 14:22
53 ca Montreal Rain 7 986 93 14484 39 10 02.08.2018 14:22
54 eg Kairo Clear 29 1017 45 6000 9 10 02.08.2018 14:22
55 bo Potisi Clouds 14 1009 29 0 10 288 02.08.2018 14:22
56 in Jagatsukh Clear -3 1022 87 0 4 104 02.08.2018 14:22
57 ru Werchojansk Clouds -8 1011 95 0 6 27 02.08.2018 14:22
58 gl Nuuk Clouds 3 1010 55 10000 11 190 02.08.2018 14:22
59 ru Moskau Clouds 15 1012 62 10000 22 240 02.08.2018 14:22
60 gr Athen Clouds 21 1017 78 10000 5 0 02.08.2018 14:22
61 no Hammerfest Clear 0 1009 74 10000 21 210 02.08.2018 14:22
62 uy Montevideo Rain 17 1015 88 10000 18 60 02.08.2018 14:22
63 ar Ushuaia Rain 7 1002 75 10000 21 230 02.08.2018 14:22
64 au Darwin Clouds 23 1011 88 10000 5 70 02.08.2018 14:22
65 id Jakarta Rain 25 1010 88 5000 5 0 02.08.2018 14:22
66 in Mumbai Haze 31 1010 58 3000 5 110 02.08.2018 14:22
67 cn Lhasa Clouds 2 1023 49 0 6 29 02.08.2018 14:22
68 iq Bagdad Clouds 29 1016 37 8000 5 290 02.08.2018 14:22
69 ke Nairobi Clouds 15 1021 82 10000 11 200 02.08.2018 14:22
70 at Wien Fog 11 1016 77 10000 9 120 02.08.2018 14:22
71 it Palermo Clear 17 1019 68 10000 17 70 02.08.2018 14:22
72 is Reykjavik Clear 6 1010 63 10000 8 20 02.08.2018 14:22
73 ru Jakutsk Clear -2 1009 100 10000 11 340 02.08.2018 14:22
74 jp Tokio Rain 16 1025 82 10000 26 10 02.08.2018 14:22
75 br Rio de Janeiro -273 0 0 0 0 0 02.08.2018 14:22
76 ar Esquel Clouds 13 1022 47 10000 13 270 02.08.2018 14:22
77 bo La Paz Clouds 8 1038 81 10000 4 10 02.08.2018 14:22
78 ec San Cristobal Clouds 23 1014 73 10000 24 180 02.08.2018 14:22
79 de Stuttgart Rain 14 1015 87 10000 5 230 02.08.2018 14:22
80 bs Nassau Rain 30 1015 74 10000 13 280 02.08.2018 14:22
81 us Honolulu Clouds 26 1017 74 16093 13 90 02.08.2018 14:22
82 de Bremen Clear 13 1010 93 10000 8 130 02.08.2018 14:22
83 de Frankfurt Rain 14 1013 100 9000 15 180 02.08.2018 14:22
84 de Dresden Clear 13 1014 76 10000 11 150 02.08.2018 14:22
85 de Freiburg Rain 14 1014 87 10000 21 180 02.08.2018 14:22
86 ad Andorra la Vella Clear 15 1016 42 10000 9 230 02.08.2018 14:22
87 de Magdeburg Clouds 14 1012 84 0 2 118 02.08.2018 14:22
88 tr Alanya Haze 22 1020 73 5000 5 320 02.08.2018 14:22
89 us Los Angeles Haze 21 1011 64 16093 9 140 02.08.2018 14:22
90 us Death Valley Clouds 21 1002 23 0 6 85 02.08.2018 14:22
91 es Palma de Mallorca Clear 21 1017 73 10000 8 220 02.08.2018 14:22
92 es Sevilla Clear 23 1018 47 10000 18 220 02.08.2018 14:22
93 fr Paris Clouds 15 1010 87 10000 13 180 02.08.2018 14:22
94 sb Honiara Clouds 22 1010 100 10000 24 143 02.08.2018 14:22
95 ck Avarua Rain 23 1016 83 10000 11 90 02.08.2018 14:22
96 ar Buenos Aires Drizzle 17 1013 100 1200 17 40 02.08.2018 14:22
97 fr Nizza Clouds 14 1018 72 10000 4 250 02.08.2018 14:22
98 us New York Clouds 14 994 47 16093 44 280 02.08.2018 14:22
99 au Sydney Clear 11 1015 46 10000 11 360 02.08.2018 14:22
100 gb London Rain 12 1004 93 6000 21 240 02.08.2018 14:22
101 ma Casablanca Clear 20 1019 68 10000 22 10 02.08.2018 14:23
102 ma Marrakesch Clear 26 1018 34 10000 9 30 02.08.2018 14:23
103 ch Andermatt Clouds 13 1017 81 0 11 70 02.08.2018 14:23
104 ch Bern Rain 13 1016 93 10000 4 0 02.08.2018 14:23
105 at Innsbruck Clear 10 1016 71 10000 5 270 02.08.2018 14:23
106 it Rom Clear 16 1019 72 10000 8 130 02.08.2018 14:23
107 tr Ankara Clouds 15 1020 54 10000 2 0 02.08.2018 14:23
108 tr Istanbul Clouds 19 1019 77 10000 13 30 02.08.2018 14:23
109 et Addis Abeba Clouds 16 1026 55 10000 18 70 02.08.2018 14:23
110 ru Amderma Clouds 0 1022 69 0 10 300 02.08.2018 14:23
111 ru Surgut Snow -3 1015 68 10000 18 330 02.08.2018 14:23
112 mn Ulaanbaatar Clear -7 1015 57 10000 7 133 02.08.2018 14:23
113 mn Uliastai Clouds -1 1010 43 0 7 171 02.08.2018 14:23
114 us Chicago Clouds 11 1017 53 16093 11 350 02.08.2018 14:23
115 cl Santiago Clouds 21 1020 39 7000 8 200 02.08.2018 14:23
116 us Miami Clouds 31 1013 59 16093 15 270 02.08.2018 14:23
117 us Nome Clouds -6 990 92 16093 4 4 02.08.2018 14:23
118 us Fairbanks Clouds -5 989 68 11265 9 40 02.08.2018 14:23
119 cn Peking Mist 11 1024 87 5000 7 140 02.08.2018 14:23
120 mv Male Clouds 28 1011 83 10000 11 200 02.08.2018 14:23
121 no Oslo Rain 7 1008 93 10000 8 50 02.08.2018 14:23
122 se Stockholm Clouds 8 1010 93 9000 2 0 02.08.2018 14:23
123 ru Anadyr Clear -5 994 92 10000 11 40 02.08.2018 14:23
124 qa Doha Haze 31 1014 66 10000 5 20 02.08.2018 14:23
125 nz Wellington Rain 13 1012 87 10000 30 350 02.08.2018 14:23
126 cd Kisangani Clouds 22 1010 81 0 1 100 02.08.2018 14:23
127 pe Cusco Clouds 14 1031 58 10000 21 110 02.08.2018 14:23
128 es Madrid Clouds 15 1019 82 10000 11 240 02.08.2018 14:23